Regional Weather Roundup
Issued by NWS Bismarck, ND

Home | Current Version | Previous Version | Text Only | Print | Product List | Glossary On
Versions: 1 2 3 4 5 6 7 8 9 10 11 12 13 14 15 16 17 18 19 20 21 22 23 24 25 26 27 28 29 30 31 32 33 34 35 36 37 38 39 40 41 42 43 44 45 46 47 48 49 50
000
ASUS43 KBIS 211610
RWRBIS

NWR BROADCAST TEXT
NATIONAL WEATHER SERVICE BISMARCK ND
1000 AM CST SUN JAN 21 2018

NOTE: "FAIR" INDICATES FEW OR NO CLOUDS BELOW 12,000 FEET WITH NO
SIGNIFICANT WEATHER AND/OR OBSTRUCTIONS TO VISIBILITY.


CITY           SKY/WX    TMP DP  RH WIND       PRES   REMARKS
WILLISTON      FAIR      12  11  95 SW3       30.02R
MINOT          FAIR      17  12  80 SW8       30.02R WCI   7
MINOT AFB      SUNNY     14  10  86 SW5       30.01R WCI   6
BISMARCK       FAIR      16  15  96 CALM      30.07R
DICKINSON      FAIR      24  16  71 W10       29.98R WCI  14
GARRISON         N/A      8   6  92 CALM      30.02R
HETTINGER ARPT PTSUNNY   22  17  81 W6        30.02R WCI  14
JAMESTOWN      FAIR      18  16  92 N7        30.04R WCI   9
CARRINGTON     CLOUDY    19  18  93 NW3       30.07R
LINTON           N/A     21  19  93 CALM      30.06R
OAKES            N/A     23  23 100 N10       30.03R WCI  12
TIOGA          FOG        1   0  92 CALM      30.01S VSB 1/2
$$

CITY           SKY/WX    TMP DP  RH WIND       PRES   REMARKS
GRAND FORKS    CLOUDY    23  22  96 N6        30.07R WCI  16
GRAND FORKS AF PTSUNNY   23  22  94 N7        30.07R WCI  15
DEVILS LAKE    FOG       16  15  96 CALM      30.06R VSB<1/4
FARGO          FOG       18  17  96 N10       30.05R VSB 1   WCI   6
CANDO          CLOUDY    14  14 100 CALM      30.07R FOG
CAVALIER         N/A     21  21 100 N6        30.08R WCI  14
GWINNER          N/A     25  23  93 N15       30.03R WCI  12
ROLLA          PTSUNNY   14  12  92 CALM      30.03R
WALHALLA       FAIR      21  21 100 N7        30.09R WCI  13
$$

CITY           SKY/WX    TMP DP  RH WIND       PRES   REMARKS
ABERDEEN       CLOUDY    26  22  84 N8        30.03R WCI  18
MOBRIDGE       PTSUNNY   28  22  78 NW7       30.01R
BUFFALO          N/A     24  18  77 W8        29.95R WCI  15
RAPID CITY     CLOUDY    30  24  78 N10       30.00R
GLASGOW        PTCLDY     7   3  84 CALM      30.01R
SIDNEY         SUNNY     14  12  92 S10       30.03S WCI   1
WOLF POINT     CLEAR      6   3  87 SW5       30.04R WCI  -3
GLENDIVE       MOSUNNY   14   9  80 S5        30.03R WCI   6
MILES CITY     CLOUDY    12  10  92 SW6       30.06R WCI   3
BAKER          PTSUNNY   19  16  88 NW3       30.03R
$$

CITY           SKY/WX    TMP DP  RH WIND       PRES   REMARKS
BILLINGS       PTCLDY    22  14  71 SW13      30.07R WCI  10
GREAT FALLS    CLEAR     25  16  68 SW10      30.01S WCI  15
REGINA         PTCLDY    10   7  85 SE10      29.94S WCI  -3
ESTEVAN        PTCLDY    12   9  85 SE5       29.99R WCI   4
$$




USA.gov is the U.S. government's official web portal to all federal, state and local government web resources and services.